Weather History for MWCR - October, 2012

Change the Weather History Date:

Sunday, October 28, 2012

  Actual Average Record
Temperature  
Mean Temperature 81 °F -  
Max Temperature 87 °F 83 °F 91 °F (1997)
Min Temperature 75 °F 75 °F 73 °F (1999)
Cooling Degree Days 16    
Growing Degree Days 31 (Base 50)    
Moisture  
Dew Point 70 °F    
Average Humidity 68    
Maximum Humidity 94    
Minimum Humidity 53    
Precipitation  
Precipitation 0.00 in - - ()
Sea Level Pressure  
Sea Level Pressure 29.86 in    
Wind  
Wind Speed 5 mph ()    
Max Wind Speed 10 mph    
Max Gust Speed -    
Visibility 6.2 miles    
Events      
Averages and records for this station are not official NWS values.
T = Trace of Precipitation, MM = Missing Value Source: Averaged Metar Reports

Daily Weather History Graph

Daily Weather History Graph

Search for Another Location

Airport or City:

Trip Planner

Search our weather history database for the weather conditions in past years. The results will help you decide how hot, cold, wet, or windy it might be!

Date:

Astronomy

Oct. 28, 2012 Rise Set
Actual Time 6:24 AM EST 5:53 PM EST
Civil Twilight 6:02 AM EST 6:15 PM EST
Nautical Twilight 5:36 AM EST 6:41 PM EST
Astronomical Twilight 5:10 AM EST 7:07 PM EST
Moon 5:09 PM EST (10/28) 5:20 AM EST (10/28)
Length of Visible Light 12h 13m
Length of Day
11h 28m
Waxing Gibbous, 99% of the Moon is Illuminated
Oct 28
Waxing Gibbous
Oct 29
Full
Nov 6
Last Quarter
Nov 13
New
Nov 20
First Quarter

Hourly Weather History & Observations

Time (EST) Temp. Heat Index Dew Point Humidity Pressure Visibility Wind Dir Wind Speed Gust Speed Precip Events Conditions
6:00 AM 78.8 °F - 69.8 °F 74% 29.83 in 6.2 mi NW 3.5 mph - N/A   Partly Cloudy
7:00 AM 76 °F - 74 °F 91% 29.86 in 6 mi Calm Calm - -   Partly Cloudy
7:00 AM 75.2 °F - 73.4 °F 94% 29.86 in 6.2 mi Calm Calm - N/A   Scattered Clouds
8:00 AM 77.0 °F - 69.8 °F 78% 29.86 in 6.2 mi North 4.6 mph - N/A   Scattered Clouds
9:00 AM 82.4 °F 87.2 °F 71.6 °F 70% 29.89 in 6.2 mi Variable 8.1 mph - N/A   Partly Cloudy
10:00 AM 84.2 °F 88.4 °F 69.8 °F 62% 29.89 in 6.2 mi North 9.2 mph - N/A   Partly Cloudy
11:00 AM 84.2 °F 88.4 °F 69.8 °F 62% 29.89 in 6.2 mi NNW 9.2 mph - N/A   Partly Cloudy
12:00 PM 86.0 °F 90.4 °F 69.8 °F 58% 29.89 in 6.2 mi NW 6.9 mph - N/A   Partly Cloudy
1:00 PM 85 °F - 71 °F 53% 29.86 in 6 mi NNW 10.4 mph - -   Scattered Clouds
1:00 PM 86.0 °F 90.4 °F 69.8 °F 58% 29.86 in 6.2 mi NNW 10.4 mph - N/A   Partly Cloudy
2:00 PM 86.0 °F 90.4 °F 69.8 °F 58% 29.83 in 6.2 mi NNW 10.4 mph - N/A   Partly Cloudy
3:00 PM 86.0 °F 89.4 °F 68.0 °F 55% 29.83 in 6.2 mi North 9.2 mph - N/A   Partly Cloudy
4:00 PM 84.2 °F 88.4 °F 69.8 °F 62% 29.83 in 6.2 mi North 9.2 mph - N/A   Partly Cloudy
5:00 PM 84.2 °F 88.4 °F 69.8 °F 62% 29.83 in 6.2 mi NNW 6.9 mph - N/A   Partly Cloudy
6:00 PM 80.6 °F 83.9 °F 69.8 °F 70% 29.83 in 6.2 mi North 4.6 mph - N/A   Partly Cloudy
7:00 PM 80 °F - 70 °F 64% 29.86 in 6 mi North 4.6 mph - -   Scattered Clouds
7:00 PM 80.6 °F 83.9 °F 69.8 °F 70% 29.86 in 6.2 mi North 4.6 mph - N/A   Partly Cloudy
8:00 PM 80.6 °F 83.9 °F 69.8 °F 70% 29.86 in 6.2 mi NNW 3.5 mph - N/A   Partly Cloudy
9:00 PM 80.6 °F 83.9 °F 69.8 °F 70% 29.89 in 6.2 mi NW 5.8 mph - N/A   Partly Cloudy
10:00 PM 80.6 °F 83.9 °F 69.8 °F 70% 29.89 in 6.2 mi NNW 4.6 mph - N/A   Partly Cloudy